Location: Leipzig
(51.3203°N, 12.3761°E)
Time: 22:28:07
(UTC+01:00)

ISS - Pass Details

Date: 03 December 2021
Orbit: 413 x 422 km, 51.6° (Epoch: 27 January)

Event Time Altitude Azimuth Distance (km) Brightness Sun altitude
Rises 18:33:47 0° 284° (WNW) 2,388 1.2 -22.3°
Reaches altitude 10° 18:36:00 10° 276° (W) 1,517 0.1 -22.6°
Enters shadow 18:39:08 36° 209° (SSW) 696 -2.4 -23.1°
